Location: Solon
(41.3849°N, 81.4081°W)
Time: 20:13:21
(UTC-04:00)

Daily predictions for brighter satellites

Satellite Brightness Start Highest point End
(mag) Time Altitude Azimuth Time Altitude Azimuth Time Altitude Azimuth
SL-14 R/B 3.2 19:05:38 10° N 19:09:29 80° E 19:13:19 10° S
Meteor 2-21 Rocket 4.4 19:05:40 10° S 19:11:41 66° E 19:17:42 10° NNE
Cosmos 2366 rocket 4.1 19:07:38 10° SSE 19:13:39 53° E 19:19:38 10° NNE
MTI 3.7 19:11:29 10° NNE 19:14:43 83° ESE 19:17:54 10° S
SMAP 3.8 19:11:12 10° S 19:15:47 59° W 19:20:23 10° NNW
Cosmos 1242 Rocket 3.6 19:13:48 10° SSW 19:17:18 50° WNW 19:20:54 10° N
Cosmos 2221 4.0 19:17:55 10° SE 19:20:40 17° E 19:23:26 10° NE
ISS -2.7 19:19:10 10° WNW 19:22:18 45° SW 19:25:28 10° SSE
Cosmos 1500 Rocket 4.1 19:19:39 10° N 19:23:41 35° ENE 19:27:39 10° SE
METEOR-M 4.1 19:19:23 10° SSE 19:24:41 69° ENE 19:30:01 10° N
FREGAT/IRIS 4.4 19:23:44 11° E 19:25:01 14° ENE 19:26:41 10° NE
SPOT 3 Rocket 3.6 19:21:13 10° SSE 19:26:19 63° ENE 19:31:28 10° N
SL-8 Rocket 4.1 19:22:28 10° S 19:28:39 87° W 19:34:55 10° N
Cosmos 1315 Rocket 3.9 19:26:22 10° NNE 19:29:46 25° ENE 19:33:09 10° SE
Cosmos 921 Rocket 4.1 19:27:13 10° N 19:30:57 25° ENE 19:34:38 10° ESE
COSMOS 2428 4.0 19:26:45 10° N 19:30:58 21° NE 19:34:16 13° E
Cosmos 2333 Rocket 4.0 19:31:34 10° NNE 19:34:09 13° NE 19:36:00 11° ENE
Cosmos 2056 Rocket 3.6 19:30:36 10° NNW 19:35:57 89° WSW 19:41:12 10° SSE
Cosmos 1461 3.7 19:32:40 10° SW 19:36:34 49° NW 19:40:40 10° NNE
Cosmos 1833 4.4 19:32:44 10° S 19:38:15 51° ESE 19:43:42 10° NE
Cosmos 2360 Rocket 2.5 19:33:08 10° NNW 19:38:36 47° ENE 19:44:02 10° SE
Cosmos 2058 3.0 19:35:29 10° N 19:39:36 52° E 19:43:39 10° SSE
Cosmos 2098 Rocket 4.4 19:37:45 10° SE 19:40:55 21° E 19:44:37 10° NE
NOAA 12 4.1 19:36:06 10° SSE 19:41:20 65° ENE 19:46:36 10° N
Meteor 2-1 Rocket 4.4 19:36:01 10° S 19:41:36 55° E 19:47:20 10° NNE
COSMO-SKYMED 1 2.7 19:38:55 10° N 19:43:17 80° WNW 19:47:36 10° SSW
Cosmos 2219 4.5 19:39:44 10° SE 19:43:37 19° E 19:45:35 16° ENE
RESURS DK-1 2.9 19:40:19 10° N 19:44:11 36° ENE 19:47:05 15° ESE
Cosmos 2322 Rocket 2.7 19:39:09 10° NNW 19:44:43 65° WSW 19:50:15 10° S
Cosmos 1626 2.0 19:42:38 10° N 19:46:24 87° E 19:50:07 10° S
SL-24 R/B - RUBIN 2 4.2 19:42:16 10° NNW 19:46:58 41° NE 19:49:57 18° ESE
Cosmos 2218 Rocket 4.2 19:42:29 10° SSW 19:48:38 74° W 19:54:47 10° N
Aureole 1 Rocket 4.3 19:44:12 10° SSW 19:50:59 64° WNW 19:56:08 10° NNE
BREEZE-M DEB (TANK) 0.9 19:49:57 10° SW 19:52:01 65° SE 19:52:36 39° ENE
Lacrosse 5 rocket 3.8 19:50:14 10° WNW 19:53:25 19° NNW 19:56:29 10° NNE
SL-8 R/B 3.8 19:48:46 10° SW 19:53:29 57° SE 19:56:26 22° ENE
Cosmos 1452 Rocket 3.6 19:48:43 10° N 19:53:52 54° ENE 19:59:00 10° SE
USA 267 3.6 19:49:38 13° ENE 19:55:06 43° SE 20:01:15 10° SSW
SJ-6B 3.5 19:55:11 25° E 19:56:11 29° ENE 19:59:28 10° N
Cosmos 1727 Rocket 4.1 19:54:03 10° N 20:00:27 84° W 20:06:47 10° S
Atlas Centaur 2 3.5 19:56:51 10° SW 20:01:05 26° S 20:04:35 16° SE
Cosmos 1805 Rocket 4.3 19:57:52 10° NNE 20:01:44 30° ENE 20:02:32 28° E
DELTA 2 R/B (1) 3.6 19:57:07 10° W 20:02:42 75° S 20:05:56 26° ESE
Cosmos 2322 3.7 19:58:23 10° NNW 20:04:05 61° ENE 20:09:19 12° SE
Gbstr 26 Del rocket 4.5 20:03:14 10° NW 20:07:52 35° NNE 20:10:30 24° ENE
BREEZE M DEB (TANK) 3.2 20:05:50 10° WNW 20:09:46 26° N 20:10:26 24° NNE
ALOS 2.5 20:05:10 10° S 20:09:49 72° WSW 20:14:30 10° NNW
CZ-4C R/B 2.9 20:08:08 10° S 20:12:18 28° ESE 20:12:18 28° ESE
FENGYUN 3A 3.9 20:09:06 10° S 20:14:28 73° WSW 20:19:54 10° NNW
Cosmos 1703 4.1 20:12:18 10° NNW 20:16:09 51° W 20:19:56 10° S
Abrixas rocket 3.6 20:14:56 10° WNW 20:17:54 30° NNW 20:18:42 26° NNE
Cosmos 2123 Rocket 4.4 20:13:15 10° N 20:18:58 37° ENE 20:20:47 31° ESE
Cosmos 2219 Rocket 2.8 20:24:07 10° N 20:29:12 34° ENE 20:29:17 34° ENE
Tiangong 1 3.7 20:28:32 10° SW 20:29:20 11° SW 20:29:46 11° SSW
USA 234 4.1 20:28:01 26° ENE 20:30:23 34° NNE 20:36:08 10° NW
Thor Agena Rocket 3.7 20:26:43 10° N 20:31:50 74° WNW 20:36:52 10° SSW
Cosmos 1048 Rocket 3.8 20:30:16 10° S 20:35:21 67° ESE 20:38:42 22° NNE
Cosmos 1908 4.2 20:34:55 10° SSW 20:38:43 48° W 20:42:32 10° N
Cosmos 2333 4.2 20:33:53 10° NNW 20:39:34 63° ENE 20:40:47 50° ESE
Cosmos 2237 4.2 20:33:58 10° NNW 20:39:45 86° WSW 20:42:59 27° SSE
Iridium 4 Rocket 3.9 20:35:27 10° S 20:40:48 71° W 20:46:36 10° N
Cosmos 1420 Rocket 4.1 20:35:58 10° NNW 20:41:18 80° WSW 20:44:26 25° S
Envisat 3.5 20:46:17 41° NE 20:46:17 41° NE 20:50:05 10° N
H-2A R/B 3.6 20:43:01 17° S 20:45:43 50° W 20:49:33 10° NNW
Resurs 01 Rocket 2.8 20:49:59 32° N 20:49:59 32° N 20:52:29 10° N
Cosmos 44 4.0 20:45:15 10° SSW 20:47:52 35° S 20:47:52 35° S
Cosmos 2237 Rocket 3.4 20:52:15 10° N 20:55:40 27° NNE 20:55:40 27° NNE
Cosmos 2221 3.9 20:53:52 10° SSW 20:57:53 39° WNW 21:01:58 10° N
In-Cosmos 22 Rocket 4.4 20:53:40 10° N 20:58:33 56° NE 20:58:33 56° NE
Cosmos 44 Rocket 3.9 20:55:28 10° SSW 20:58:42 44° SSW 20:58:42 44° SSW
SL-16 R/B 4.3 21:01:26 10° N 21:02:44 14° NNE 21:02:44 14° NNE
Cosmos 1269 Rocket 4.4 21:10:27 10° SSW 21:15:39 62° WNW 21:16:59 46° NNW
COSMOS 2428 2.9 21:10:06 10° NNW 21:15:43 65° WSW 21:16:20 60° SW
Cosmos 2333 Rocket 2.7 21:13:44 10° NNW 21:18:02 50° N 21:18:02 50° N
Cosmos 2360 Rocket 4.2 21:17:47 10° NW 21:22:15 24° WSW 21:26:42 10° SSW
MOS 1-B Rocket 4.3 21:25:31 51° SW 21:26:28 58° W 21:32:17 10° NNW
Cosmos 2219 3.6 21:21:32 10° SW 21:27:13 61° WNW 21:27:40 59° NW
NOSS 0 Rocket 4.4 21:27:55 10° NNW 21:32:33 53° NNW 21:32:33 53° NNW
USA 267 3.6 21:37:01 51° N 21:38:13 58° NW 21:44:35 10° WSW
Atlas Centaur 2 4.2 21:44:57 10° WSW 21:47:13 19° SW 21:47:13 19° SW
CZ-4C R/B 4.0 21:55:35 10° WSW 21:57:35 23° WSW 21:57:35 23° WSW
USA 234 4.2 22:15:23 42° NW 22:15:23 42° NW 22:19:28 10° NW
Cosmos 2219 Rocket 4.1 22:08:06 10° NW 22:11:01 26° WNW 22:11:01 26° WNW
